| time (UTC) | temp F | wind direction | speed knots | gust knots | rain 1hr in | rain 24hr in | rain mn in | humidity % | barometer mb |
| 20260504050741 | 52 | 192 | 0.0 | 2.6 | 0.00 | 0.00 | 0.00 | 58 | 1015.6 |
| 20260504045741 | 53 | 190 | 0.9 | 2.6 | 0.00 | 0.00 | 0.00 | 58 | 1015.8 |
| 20260504044739 | 53 | 190 | 0.9 | 3.5 | 0.00 | 0.00 | 0.00 | 58 | 1015.7 |
| 20260504043738 | 53 | 190 | 0.9 | 3.5 | 0.00 | 0.00 | 0.00 | 59 | 1015.3 |
| 20260504042738 | 53 | 219 | 1.7 | 2.6 | 0.00 | 0.00 | 0.00 | 60 | 1015.3 |
| 20260504041736 | 54 | 223 | 0.9 | 3.5 | 0.00 | 0.00 | 0.00 | 60 | 1015.3 |
| 20260504040704 | 54 | 229 | 1.7 | 3.5 | 0.00 | 0.00 | 0.00 | 60 | 1015.4 |
| 20260504035703 | 56 | 303 | 0.9 | 1.7 | 0.00 | 0.00 | 0.00 | 59 | 1015.5 |
| 20260504034702 | 56 | 303 | 0.9 | 1.7 | 0.00 | 0.00 | 0.00 | 58 | 1015.6 |
| 20260504033700 | 57 | 304 | 0.9 | 1.7 | 0.00 | 0.00 | 0.00 | 58 | 1015.6 |
| 20260504032659 | 59 | 304 | 0.9 | 1.7 | 0.00 | 0.00 | 0.00 | 56 | 1015.8 |
| 20260504031659 | 62 | 321 | 0.9 | 1.7 | 0.00 | 0.00 | 0.00 | 52 | 1016.1 |
| 20260504030657 | 64 | 321 | 0.9 | 1.7 | 0.00 | 0.00 | 0.00 | 48 | 1016.0 |
| 20260504025657 | 66 | 321 | 0.9 | 1.7 | 0.00 | 0.00 | 0.00 | 43 | 1016.1 |
| 20260504024656 | 67 | 321 | 0.0 | 0.9 | 0.00 | 0.00 | 0.00 | 41 | 1016.1 |
| 20260504023655 | 68 | 321 | 0.0 | 1.7 | 0.00 | 0.00 | 0.00 | 41 | 1016.2 |
| 20260504022654 | 69 | 321 | 0.0 | 1.7 | 0.00 | 0.00 | 0.00 | 39 | 1016.2 |
| 20260504021653 | 69 | 321 | 0.9 | 1.7 | 0.00 | 0.00 | 0.00 | 37 | 1016.0 |
| 20260504020621 | 70 | 323 | 0.0 | 0.9 | 0.00 | 0.00 | 0.00 | 37 | 1015.9 |
| 20260504015620 | 70 | 336 | 0.9 | 1.7 | 0.00 | 0.00 | 0.00 | 37 | 1015.9 |
| 20260504014619 | 71 | 345 | 0.9 | 4.3 | 0.00 | 0.00 | 0.00 | 35 | 1016.1 |
| 20260504013618 | 71 | 326 | 1.7 | 4.3 | 0.00 | 0.00 | 0.00 | 36 | 1016.1 |
| 20260504012616 | 72 | 326 | 0.9 | 3.5 | 0.00 | 0.00 | 0.00 | 34 | 1015.9 |
| 20260504011545 | 72 | 328 | 0.9 | 7.0 | 0.00 | 0.00 | 0.00 | 32 | 1015.7 |
| 20260504010544 | 72 | 7 | 0.9 | 7.0 | 0.00 | 0.00 | 0.00 | 33 | 1015.7 |
| 20260504005512 | 72 | 10 | 0.9 | 5.2 | 0.00 | 0.00 | 0.00 | 34 | 1016.0 |
| 20260504004511 | 72 | 7 | 1.7 | 3.5 | 0.00 | 0.00 | 0.00 | 34 | 1016.0 |
| 20260504003510 | 72 | 8 | 1.7 | 2.6 | 0.00 | 0.00 | 0.00 | 34 | 1016.0 |
| 20260504002508 | 72 | 13 | 1.7 | 2.6 | 0.00 | 0.00 | 0.00 | 33 | 1016.0 |
| 20260504001508 | 72 | 11 | 1.7 | 4.3 | 0.00 | 0.00 | 0.00 | 32 | 1016.1 |
| 20260504000436 | 72 | 5 | 1.7 | 3.5 | 0.00 | 0.00 | 0.00 | 33 | 1016.1 |
| 20260503235301 | 72 | 21 | 1.7 | 7.8 | 0.00 | 0.00 | 0.00 | 34 | 1016.4 |
| 20260503234300 | 72 | 20 | 4.3 | 7.8 | 0.00 | 0.00 | 0.00 | 38 | 1016.2 |
| 20260503233228 | 72 | 29 | 0.9 | 3.5 | 0.00 | 0.00 | 0.00 | 39 | 1016.7 |
| 20260503232226 | 73 | 23 | 0.9 | 3.5 | 0.00 | 0.00 | 0.00 | 36 | 1016.4 |
| 20260503231225 | 73 | 33 | 0.9 | 3.5 | 0.00 | 0.00 | 0.00 | 36 | 1016.7 |
| 20260503230224 | 74 | 10 | 0.9 | 6.1 | 0.00 | 0.00 | 0.00 | 37 | 1016.8 |
| 20260503225223 | 74 | 11 | 1.7 | 6.1 | 0.00 | 0.00 | 0.00 | 36 | 1016.9 |
| 20260503224222 | 74 | 280 | 1.7 | 6.1 | 0.00 | 0.00 | 0.00 | 33 | 1017.3 |
| 20260503223221 | 73 | 288 | 1.7 | 6.1 | 0.00 | 0.00 | 0.00 | 37 | 1017.2 |
| 20260503222220 | 74 | 318 | 1.7 | 6.1 | 0.00 | 0.00 | 0.00 | 37 | 1017.4 |
| 20260503221218 | 74 | 341 | 0.9 | 4.3 | 0.00 | 0.00 | 0.00 | 33 | 1017.3 |
| 20260503220218 | 74 | 17 | 1.7 | 4.3 | 0.00 | 0.00 | 0.00 | 34 | 1017.8 |
| 20260503215216 | 74 | 315 | 1.7 | 3.5 | 0.00 | 0.00 | 0.00 | 34 | 1017.8 |
| 20260503214214 | 74 | 348 | 1.7 | 3.5 | 0.00 | 0.00 | 0.00 | 33 | 1017.8 |
| 20260503213213 | 74 | 14 | 1.7 | 3.5 | 0.00 | 0.00 | 0.00 | 32 | 1018.0 |
| 20260503212212 | 73 | 10 | 1.7 | 2.6 | 0.00 | 0.00 | 0.00 | 34 | 1018.0 |
| 20260503211211 | 74 | 340 | 0.9 | 5.2 | 0.00 | 0.00 | 0.00 | 31 | 1018.4 |
| 20260503210210 | 74 | 11 | 0.9 | 6.1 | 0.00 | 0.00 | 0.00 | 33 | 1018.5 |
| 20260503205209 | 74 | 338 | 0.9 | 5.2 | 0.00 | 0.00 | 0.00 | 33 | 1019.0 |
| 20260503204208 | 74 | 319 | 0.9 | 5.2 | 0.00 | 0.00 | 0.00 | 34 | 1019.1 |
| 20260503203208 | 74 | 255 | 0.9 | 5.2 | 0.00 | 0.00 | 0.00 | 32 | 1019.0 |
| 20260503202207 | 74 | 295 | 1.7 | 4.3 | 0.00 | 0.00 | 0.00 | 31 | 1019.0 |
| 20260503201206 | 74 | 347 | 1.7 | 4.3 | 0.00 | 0.00 | 0.00 | 35 | 1019.3 |
| 20260503200205 | 74 | 16 | 0.9 | 4.3 | 0.00 | 0.00 | 0.00 | 35 | 1019.3 |
| 20260503195203 | 74 | 332 | 0.9 | 3.5 | 0.00 | 0.00 | 0.00 | 35 | 1019.5 |
| 20260503194131 | 73 | 31 | 0.9 | 3.5 | 0.00 | 0.00 | 0.00 | 35 | 1019.4 |
| 20260503193130 | 72 | 275 | 1.7 | 3.5 | 0.00 | 0.00 | 0.00 | 32 | 1019.4 |
| 20260503192129 | 72 | 110 | 0.9 | 3.5 | 0.00 | 0.00 | 0.00 | 38 | 1019.8 |
| 20260503191128 | 72 | 68 | 0.9 | 3.5 | 0.00 | 0.00 | 0.00 | 36 | 1019.8 |
| 20260503190127 | 72 | 14 | 1.7 | 3.5 | 0.00 | 0.00 | 0.00 | 36 | 1019.8 |
| 20260503185126 | 72 | 32 | 0.9 | 3.5 | 0.00 | 0.00 | 0.00 | 40 | 1020.1 |
| 20260503184124 | 72 | 32 | 1.7 | 3.5 | 0.00 | 0.00 | 0.00 | 37 | 1020.1 |
| 20260503183052 | 71 | 107 | 1.7 | 4.3 | 0.00 | 0.00 | 0.00 | 39 | 1020.1 |
| 20260503182052 | 70 | 18 | 2.6 | 4.3 | 0.00 | 0.00 | 0.00 | 39 | 1020.0 |
| 20260503181051 | 70 | 23 | 1.7 | 4.3 | 0.00 | 0.00 | 0.00 | 41 | 1020.4 |
| 20260503180019 | 70 | 54 | 0.9 | 3.5 | 0.00 | 0.00 | 0.00 | 41 | 1020.4 |
| 20260503175018 | 69 | 73 | 0.9 | 3.5 | 0.00 | 0.00 | 0.00 | 41 | 1020.4 |
| 20260503174017 | 70 | 31 | 0.9 | 3.5 | 0.00 | 0.00 | 0.00 | 41 | 1020.7 |
| 20260503173016 | 69 | 34 | 1.7 | 3.5 | 0.00 | 0.00 | 0.00 | 45 | 1020.7 |
| 20260503172016 | 67 | 74 | 0.0 | 2.6 | 0.00 | 0.00 | 0.00 | 48 | 1020.6 |
| 20260503171015 | 65 | 66 | 0.9 | 2.6 | 0.00 | 0.00 | 0.00 | 50 | 1020.3 |
| 20260503150656 | 58 | 24 | 0.9 | 3.5 | 0.00 | 0.00 | 0.00 | 57 | 1019.9 |
| 20260503130541 | 46 | 131 | 1.7 | 2.6 | 0.00 | 0.00 | 0.00 | 75 | 1020.3 |
| 20260503110459 | 48 | 147 | 0.0 | 3.5 | 0.00 | 0.00 | 0.00 | 70 | 1020.9 |
| 20260503090314 | 51 | 218 | 0.9 | 2.6 | 0.00 | 0.00 | 0.00 | 65 | 1020.7 |
| 20260503081205 | 52 | 222 | 1.7 | 4.3 | 0.00 | 0.00 | 0.00 | 61 | 1020.9 |
| 20260503080204 | 51 | 223 | 1.7 | 5.2 | 0.00 | 0.00 | 0.00 | 63 | 1020.5 |
| 20260503072200 | 52 | 163 | 0.0 | 0.0 | 0.00 | 0.00 | 0.00 | 64 | 1020.4 |
| 20260503071159 | 52 | 163 | 0.0 | 0.0 | 0.00 | 0.00 | 0.00 | 63 | 1020.4 |
| 20260503070158 | 52 | 163 | 0.0 | 0.0 | 0.00 | 0.00 | 0.00 | 63 | 1020.3 |